Location: Grisols
(45.0093°N, 3.1167°E)
Time: 02:36:56
(UTC+00:00)

Ariane Rocket - Pass Details

Date: 21 October 2019
Orbit: 760 x 771 km, 98.8° (Epoch: 22 November)

Event Time Altitude Azimuth Distance (km) Brightness Sun altitude
Rises 17:35:58 0° 127° (SE) 3,233 5.8 -8.3°
Reaches altitude 10° 17:38:40 10° 114° (ESE) 2,312 5.0 -8.7°
Maximum altitude 17:42:38 24° 62° (ENE) 1,578 4.1 -9.4°
Drops below altitude 10° 17:46:37 10° 11° (N) 2,324 5.3 -10.1°
Sets 17:49:19 0° 358° (N) 3,256 6.2 -10.6°
